Flag for United Kingdom Weather past 2 weeks in Taunton, England, United Kingdom

Now
44 °F

Quite cool.


Feels Like: 39 °F
Forecast: 35 / 49 °F
Wind: 10 mph from Southwest

Location: Dunkeswell Aerodrome

Current Time: Jan 25, 2015 at 12:40:25 PM

Latest Report: Jan 25, 2015 at 12:00 PM


Visibility: 15 mi

Pressure: 30.47 "Hg

Humidity: 80%

Dew point: 38 °F

Location of TauntonLocation

Historic Weather in Taunton — Graph

°F

Taunton temperature yesterday

Maximum temperature yesterday: 47 °F (at 12:00 AM)
Minimum temperature yesterday: 36 °F (at 11:00 PM)
Average temperature yesterday: 39 °F

Past Weeks' High & Low Weather Summary

 TemperatureHumidityPressure
High50 °F (Jan 12, 10:00 PM)100% (Jan 12, 4:00 PM)30.54 "Hg (Jan 12, 4:00 PM)
Low25 °F (Jan 23, 4:00 AM)57% (Jan 19, 12:00 PM)29.12 "Hg (Jan 15, 1:00 AM)
Average38 °F87%29.91 "Hg
* Reported Jan 10 11:00 AM — Jan 25 11:00 AM, Taunton, Weather by CustomWeather, © 2014

Note: Actual official high and low records may vary slightly from our data, if they occured in-between our weather recording intervals... More about our weather records

Advertising

Taunton weather history for previous 24 hours

 ConditionsComfort  
Time TempWeatherWind HumidityBarometerVisibility
11:00 AM
Jan 25
42 °FQuite cool.9 mph83%30.49 "Hg14 mi
10:00 AM40 °FQuite cool.8 mph83%30.50 "Hg14 mi
9:00 AM39 °FChilly.8 mph83%30.50 "Hg13 mi
8:00 AM39 °FChilly.7 mph81%30.50 "Hg14 mi
7:00 AM38 °FChilly.5 mph83%30.51 "Hg12 mi
6:00 AM38 °FChilly.5 mph81%30.52 "Hg14 mi
5:00 AM38 °FChilly.6 mph79%30.52 "Hg14 mi
4:00 AM38 °FChilly.6 mph79%30.52 "Hg12 mi
3:00 AM36 °FChilly.7 mph83%30.53 "Hg11 mi
2:00 AM35 °FChilly.7 mph87%30.53 "Hg10 mi
1:00 AM35 °FChilly.7 mph87%30.53 "Hg9 mi
12:00 AM35 °FChilly.1 mph88%30.54 "Hg11 mi
11:00 PM
Jan 24
36 °FChilly.No wind86%30.54 "Hg11 mi
10:00 PM36 °FChilly.3 mph82%30.54 "Hg11 mi
8:00 PM36 °FChilly.3 mph84%30.53 "Hg11 mi
7:00 PM37 °FChilly.5 mph80%30.51 "Hg11 mi
6:00 PM37 °FChilly.6 mph80%30.51 "Hg12 mi
5:00 PM38 °FChilly.6 mph75%30.48 "Hg12 mi
4:00 PM41 °FQuite cool.8 mph68%30.47 "Hg14 mi
3:00 PM42 °FQuite cool.10 mph67%30.44 "Hg14 mi
2:00 PM42 °FQuite cool.9 mph69%30.43 "Hg14 mi
1:00 PM42 °FQuite cool.12 mph68%30.43 "Hg15 mi
12:00 PM41 °FQuite cool.12 mph72%30.42 "Hg14 mi
Weather by CustomWeather, © 2014

See weather overviewHow to use our weather pages